Time,TemperatureF,DewpointF,PressureIn,WindDirection,WindDirectionDegrees,WindSpeedMPH,WindSpeedGustMPH,Humidity,HourlyPrecipIn,Conditions,Clouds,dailyrainin,SoftwareType,DateUTC
2013-03-31 00:00:00,32.4,31.0,30.13,WNW,292,1.6,1.6,94,0.00,,,0.00,Rainwise IP-100,2013-03-31 04:00:00,
2013-03-31 00:01:00,32.5,32.0,30.13,WNW,292,1.2,1.9,94,0.00,,,0.00,Rainwise IP-100,2013-03-31 04:01:00,
2013-03-31 00:06:00,32.3,31.0,30.13,WNW,292,0.0,1.9,95,0.00,,,0.00,Rainwise IP-100,2013-03-31 04:06:00,
2013-03-31 00:11:00,32.1,31.0,30.13,WNW,292,0.0,1.9,95,0.00,,,0.00,Rainwise IP-100,2013-03-31 04:11:00,
2013-03-31 00:16:00,32.1,31.0,30.14,WNW,292,0.0,0.0,95,0.00,,,0.00,Rainwise IP-100,2013-03-31 04:16:00,
2013-03-31 00:21:00,31.8,31.0,30.14,WNW,292,1.2,1.6,95,0.00,,,0.00,Rainwise IP-100,2013-03-31 04:21:00,
2013-03-31 00:26:00,32.0,31.0,30.14,WNW,292,1.4,1.9,95,0.00,,,0.00,Rainwise IP-100,2013-03-31 04:26:00,
2013-03-31 00:31:00,32.4,31.0,30.14,WNW,292,1.9,1.9,95,0.00,,,0.00,Rainwise IP-100,2013-03-31 04:31:00,
2013-03-31 00:32:00,32.4,31.0,30.14,WNW,292,0.0,1.9,95,0.00,,,0.00,Rainwise IP-100,2013-03-31 04:32:00,
2013-03-31 00:37:00,32.5,32.0,30.14,WNW,292,1.2,3.7,95,0.00,,,0.00,Rainwise IP-100,2013-03-31 04:37:00,
2013-03-31 00:42:00,32.5,32.0,30.14,WNW,292,1.4,2.3,95,0.00,,,0.00,Rainwise IP-100,2013-03-31 04:42:00,
2013-03-31 00:47:00,32.2,31.0,30.14,WNW,292,0.0,1.6,95,0.00,,,0.00,Rainwise IP-100,2013-03-31 04:47:00,
2013-03-31 00:52:00,32.5,32.0,30.14,WNW,292,1.6,2.3,96,0.00,,,0.00,Rainwise IP-100,2013-03-31 04:52:00,
2013-03-31 00:57:00,32.8,32.0,30.14,WNW,292,0.0,2.3,96,0.00,,,0.00,Rainwise IP-100,2013-03-31 04:57:00,
2013-03-31 01:02:00,32.9,32.0,30.14,WNW,292,1.9,3.7,96,0.00,,,0.00,Rainwise IP-100,2013-03-31 05:02:00,
2013-03-31 01:07:00,33.0,32.0,30.14,WNW,292,2.6,3.3,96,0.00,,,0.00,Rainwise IP-100,2013-03-31 05:07:00,
2013-03-31 01:12:00,33.3,32.0,30.14,WNW,292,2.6,5.4,96,0.00,,,0.00,Rainwise IP-100,2013-03-31 05:12:00,
2013-03-31 01:17:00,34.5,33.0,30.14,West,270,2.6,4.0,97,0.00,,,0.00,Rainwise IP-100,2013-03-31 05:17:00,
2013-03-31 01:22:00,35.1,33.0,30.14,WNW,292,2.1,4.0,97,0.00,,,0.00,Rainwise IP-100,2013-03-31 05:22:00,
2013-03-31 01:27:00,34.9,33.0,30.15,WNW,292,2.8,4.2,96,0.00,,,0.00,Rainwise IP-100,2013-03-31 05:27:00,
2013-03-31 01:32:00,35.3,33.0,30.15,West,270,2.8,4.9,96,0.00,,,0.00,Rainwise IP-100,2013-03-31 05:32:00,
2013-03-31 01:37:00,35.0,33.0,30.15,West,270,1.9,4.7,95,0.00,,,0.00,Rainwise IP-100,2013-03-31 05:37:00,
2013-03-31 01:42:00,34.5,33.0,30.15,WNW,292,3.0,4.0,95,0.00,,,0.00,Rainwise IP-100,2013-03-31 05:42:00,
2013-03-31 01:47:00,34.1,33.0,30.14,WNW,292,3.3,4.4,95,0.00,,,0.00,Rainwise IP-100,2013-03-31 05:47:00,
2013-03-31 01:52:00,34.1,33.0,30.15,WNW,292,4.9,4.9,96,0.00,,,0.00,Rainwise IP-100,2013-03-31 05:52:00,
2013-03-31 01:58:00,34.3,33.0,30.14,WNW,292,3.5,4.9,96,0.00,,,0.00,Rainwise IP-100,2013-03-31 05:58:00,
2013-03-31 02:03:00,34.3,33.0,30.14,WNW,292,2.1,5.8,96,0.00,,,0.00,Rainwise IP-100,2013-03-31 06:03:00,
2013-03-31 02:08:00,34.4,33.0,30.14,West,270,2.8,3.7,96,0.00,,,0.00,Rainwise IP-100,2013-03-31 06:08:00,
2013-03-31 02:13:00,33.8,33.0,30.14,West,270,1.6,3.3,95,0.00,,,0.00,Rainwise IP-100,2013-03-31 06:13:00,
2013-03-31 02:18:00,33.4,32.0,30.14,West,270,2.6,2.8,95,0.00,,,0.00,Rainwise IP-100,2013-03-31 06:18:00,
2013-03-31 02:23:00,33.6,33.0,30.14,West,270,2.8,3.5,96,0.00,,,0.00,Rainwise IP-100,2013-03-31 06:23:00,
2013-03-31 02:28:00,33.5,33.0,30.14,West,270,2.1,3.0,96,0.00,,,0.00,Rainwise IP-100,2013-03-31 06:28:00,
2013-03-31 02:33:00,33.5,33.0,30.14,West,270,2.1,4.4,96,0.00,,,0.00,Rainwise IP-100,2013-03-31 06:33:00,
2013-03-31 02:38:00,33.4,32.0,30.14,West,270,2.8,4.4,96,0.00,,,0.00,Rainwise IP-100,2013-03-31 06:38:00,
2013-03-31 02:43:00,33.1,32.0,30.14,West,270,2.3,4.4,96,0.00,,,0.00,Rainwise IP-100,2013-03-31 06:43:00,
2013-03-31 02:48:00,32.9,32.0,30.14,West,270,2.6,3.3,97,0.00,,,0.00,Rainwise IP-100,2013-03-31 06:48:00,
2013-03-31 02:53:00,33.0,32.0,30.14,West,270,2.1,4.7,97,0.00,,,0.00,Rainwise IP-100,2013-03-31 06:53:00,
2013-03-31 02:58:00,33.2,32.0,30.14,West,270,2.3,3.0,97,0.00,,,0.00,Rainwise IP-100,2013-03-31 06:58:00,
2013-03-31 03:03:00,32.8,32.0,30.13,West,270,2.3,3.0,97,0.00,,,0.00,Rainwise IP-100,2013-03-31 07:03:00,
2013-03-31 03:08:00,32.5,32.0,30.14,West,270,0.0,2.8,97,0.00,,,0.00,Rainwise IP-100,2013-03-31 07:08:00,
2013-03-31 03:13:00,32.2,31.0,30.13,West,270,1.4,1.4,97,0.00,,,0.00,Rainwise IP-100,2013-03-31 07:13:00,
2013-03-31 03:18:00,32.0,31.0,30.13,West,270,0.0,2.1,97,0.00,,,0.00,Rainwise IP-100,2013-03-31 07:18:00,
2013-03-31 03:23:00,31.9,31.0,30.13,West,270,1.2,2.1,97,0.00,,,0.00,Rainwise IP-100,2013-03-31 07:23:00,
2013-03-31 03:28:00,31.9,31.0,30.13,West,270,2.1,2.6,97,0.00,,,0.00,Rainwise IP-100,2013-03-31 07:28:00,
2013-03-31 03:33:00,31.9,32.0,30.13,West,270,1.6,3.3,98,0.00,,,0.00,Rainwise IP-100,2013-03-31 07:33:00,
2013-03-31 03:38:00,32.0,32.0,30.13,North,360,2.1,2.8,98,0.00,,,0.00,Rainwise IP-100,2013-03-31 07:38:00,
2013-03-31 03:43:00,31.9,32.0,30.13,North,360,2.6,2.8,98,0.00,,,0.00,Rainwise IP-100,2013-03-31 07:43:00,
2013-03-31 03:48:00,31.8,32.0,30.14,North,360,2.1,2.6,98,0.00,,,0.00,Rainwise IP-100,2013-03-31 07:48:00,
2013-03-31 03:53:00,32.0,32.0,30.14,North,360,2.1,3.5,98,0.00,,,0.00,Rainwise IP-100,2013-03-31 07:53:00,
2013-03-31 03:58:00,32.2,32.0,30.14,North,360,2.3,3.5,98,0.00,,,0.00,Rainwise IP-100,2013-03-31 07:58:00,
2013-03-31 04:03:00,32.3,32.0,30.14,North,360,3.3,4.9,98,0.00,,,0.00,Rainwise IP-100,2013-03-31 08:03:00,
2013-03-31 04:08:00,32.6,33.0,30.14,North,360,2.8,4.9,98,0.00,,,0.00,Rainwise IP-100,2013-03-31 08:08:00,
2013-03-31 04:13:00,33.1,33.0,30.14,NW,315,3.0,5.1,98,0.00,,,0.00,Rainwise IP-100,2013-03-31 08:13:00,
2013-03-31 04:18:00,33.5,35.0,30.14,North,360,1.4,4.0,98,0.00,,,0.00,Rainwise IP-100,2013-03-31 08:18:00,
2013-03-31 04:23:00,33.6,33.0,30.14,North,360,2.3,4.0,97,0.00,,,0.00,Rainwise IP-100,2013-03-31 08:23:00,
2013-03-31 04:28:00,33.1,32.0,30.14,North,360,2.6,3.3,97,0.00,,,0.00,Rainwise IP-100,2013-03-31 08:28:00,
2013-03-31 04:33:00,33.0,32.0,30.14,North,360,2.6,4.0,97,0.00,,,0.00,Rainwise IP-100,2013-03-31 08:33:00,
2013-03-31 04:38:00,32.9,32.0,30.14,North,360,2.1,4.2,97,0.00,,,0.00,Rainwise IP-100,2013-03-31 08:38:00,
2013-03-31 04:43:00,33.2,32.0,30.14,North,360,2.1,3.7,97,0.00,,,0.00,Rainwise IP-100,2013-03-31 08:43:00,
2013-03-31 04:48:00,33.1,32.0,30.14,North,360,1.6,4.0,97,0.00,,,0.00,Rainwise IP-100,2013-03-31 08:48:00,
2013-03-31 04:53:00,32.7,32.0,30.14,North,360,1.9,3.0,96,0.00,,,0.00,Rainwise IP-100,2013-03-31 08:53:00,
2013-03-31 04:58:00,32.6,32.0,30.14,North,360,2.3,3.0,97,0.00,,,0.00,Rainwise IP-100,2013-03-31 08:58:00,
2013-03-31 05:03:00,32.3,31.0,30.15,North,360,1.6,2.6,97,0.00,,,0.00,Rainwise IP-100,2013-03-31 09:03:00,
2013-03-31 05:08:00,32.6,32.0,30.14,North,360,1.4,2.6,97,0.00,,,0.00,Rainwise IP-100,2013-03-31 09:08:00,
2013-03-31 05:13:00,32.8,32.0,30.14,North,360,1.2,1.4,97,0.00,,,0.00,Rainwise IP-100,2013-03-31 09:13:00,
2013-03-31 05:18:00,32.7,32.0,30.14,North,360,2.1,2.1,97,0.00,,,0.00,Rainwise IP-100,2013-03-31 09:18:00,
2013-03-31 05:24:00,32.1,31.0,30.15,North,360,1.4,2.1,97,0.00,,,0.00,Rainwise IP-100,2013-03-31 09:24:00,
2013-03-31 05:29:00,31.9,31.0,30.15,North,360,2.1,2.1,97,0.00,,,0.00,Rainwise IP-100,2013-03-31 09:29:00,
2013-03-31 05:34:00,31.8,31.0,30.15,North,360,1.4,2.1,97,0.00,,,0.00,Rainwise IP-100,2013-03-31 09:34:00,
2013-03-31 05:39:00,31.7,31.0,30.15,North,360,1.2,1.4,97,0.00,,,0.00,Rainwise IP-100,2013-03-31 09:39:00,
2013-03-31 05:45:00,31.7,32.0,30.15,North,360,0.0,1.6,98,0.00,,,0.00,Rainwise IP-100,2013-03-31 09:45:00,
2013-03-31 05:50:00,31.5,32.0,30.14,North,360,1.4,1.9,98,0.00,,,0.00,Rainwise IP-100,2013-03-31 09:50:00,
2013-03-31 05:55:00,31.6,32.0,30.15,North,360,1.4,1.6,98,0.00,,,0.00,Rainwise IP-100,2013-03-31 09:55:00,
2013-03-31 06:00:00,31.4,31.0,30.15,North,360,0.0,1.9,98,0.00,,,0.00,Rainwise IP-100,2013-03-31 10:00:00,
2013-03-31 06:05:00,30.9,31.0,30.15,North,360,1.2,1.9,98,0.00,,,0.00,Rainwise IP-100,2013-03-31 10:05:00,
2013-03-31 06:10:00,30.8,31.0,30.15,North,360,1.2,1.4,98,0.00,,,0.00,Rainwise IP-100,2013-03-31 10:10:00,
2013-03-31 06:15:00,30.7,31.0,30.15,North,360,1.2,1.9,98,0.00,,,0.00,Rainwise IP-100,2013-03-31 10:15:00,
2013-03-31 06:20:00,30.4,31.0,30.14,North,360,1.2,1.9,98,0.00,,,0.00,Rainwise IP-100,2013-03-31 10:20:00,
2013-03-31 06:25:00,30.3,31.0,30.14,North,360,0.0,1.2,98,0.00,,,0.00,Rainwise IP-100,2013-03-31 10:25:00,
2013-03-31 06:30:00,30.2,31.0,30.14,North,360,0.0,0.0,98,0.00,,,0.00,Rainwise IP-100,2013-03-31 10:30:00,
2013-03-31 06:35:00,30.3,31.0,30.15,North,360,1.2,1.2,98,0.00,,,0.00,Rainwise IP-100,2013-03-31 10:35:00,
2013-03-31 06:40:00,30.5,31.0,30.15,North,360,0.0,1.4,98,0.00,,,0.00,Rainwise IP-100,2013-03-31 10:40:00,
2013-03-31 06:45:00,30.4,31.0,30.15,North,360,0.0,0.0,98,0.00,,,0.00,Rainwise IP-100,2013-03-31 10:45:00,
2013-03-31 06:50:00,30.3,31.0,30.15,North,360,0.0,0.0,98,0.00,,,0.00,Rainwise IP-100,2013-03-31 10:50:00,
2013-03-31 06:55:00,30.6,31.0,30.16,North,360,0.0,1.4,98,0.00,,,0.00,Rainwise IP-100,2013-03-31 10:55:00,
2013-03-31 07:00:00,30.8,31.0,30.15,North,360,0.0,0.0,98,0.00,,,0.00,Rainwise IP-100,2013-03-31 11:00:00,
2013-03-31 07:05:00,30.9,31.0,30.16,North,360,0.0,0.0,98,0.00,,,0.00,Rainwise IP-100,2013-03-31 11:05:00,
2013-03-31 07:10:00,31.2,31.0,30.16,North,360,1.4,1.4,98,0.00,,,0.00,Rainwise IP-100,2013-03-31 11:10:00,
2013-03-31 07:15:00,31.6,32.0,30.16,North,360,0.0,1.9,98,0.00,,,0.00,Rainwise IP-100,2013-03-31 11:15:00,
2013-03-31 07:20:00,31.9,32.0,30.17,North,360,0.0,0.0,98,0.00,,,0.00,Rainwise IP-100,2013-03-31 11:20:00,
2013-03-31 07:25:00,32.5,33.0,30.17,North,360,0.0,0.0,98,0.00,,,0.00,Rainwise IP-100,2013-03-31 11:25:00,
2013-03-31 07:30:00,33.2,33.0,30.16,North,360,0.0,0.0,98,0.00,,,0.00,Rainwise IP-100,2013-03-31 11:30:00,
2013-03-31 07:35:00,34.1,35.0,30.17,North,360,0.0,0.0,98,0.00,,,0.00,Rainwise IP-100,2013-03-31 11:35:00,
2013-03-31 07:40:00,35.1,35.0,30.16,North,360,0.0,0.0,98,0.00,,,0.00,Rainwise IP-100,2013-03-31 11:40:00,
2013-03-31 07:45:00,35.7,36.0,30.17,North,360,0.0,0.0,98,0.00,,,0.00,Rainwise IP-100,2013-03-31 11:45:00,
2013-03-31 07:50:00,36.5,37.0,30.17,North,360,0.0,0.0,98,0.00,,,0.00,Rainwise IP-100,2013-03-31 11:50:00,
2013-03-31 07:55:00,37.7,38.0,30.17,North,360,0.0,0.0,98,0.00,,,0.00,Rainwise IP-100,2013-03-31 11:55:00,
2013-03-31 08:00:00,38.6,38.0,30.17,North,360,0.0,0.0,97,0.00,,,0.00,Rainwise IP-100,2013-03-31 12:00:00,
2013-03-31 08:05:00,39.0,38.0,30.17,North,360,2.1,0.0,97,0.00,,,0.00,Rainwise IP-100,2013-03-31 12:05:00,
2013-03-31 08:10:00,39.5,39.0,30.18,North,360,0.0,2.1,97,0.00,,,0.00,Rainwise IP-100,2013-03-31 12:10:00,
2013-03-31 08:15:00,40.4,39.0,30.18,North,360,1.2,0.0,96,0.00,,,0.00,Rainwise IP-100,2013-03-31 12:15:00,
2013-03-31 08:20:00,41.2,40.0,30.17,West,270,0.0,2.3,95,0.00,,,0.00,Rainwise IP-100,2013-03-31 12:20:00,
2013-03-31 08:25:00,42.0,40.0,30.18,West,270,1.6,1.9,93,0.00,,,0.00,Rainwise IP-100,2013-03-31 12:25:00,
2013-03-31 08:30:00,42.7,40.0,30.17,West,270,2.3,2.6,90,0.00,,,0.00,Rainwise IP-100,2013-03-31 12:30:00,
2013-03-31 08:35:00,43.1,39.0,30.18,West,270,1.4,3.5,87,0.00,,,0.00,Rainwise IP-100,2013-03-31 12:35:00,
2013-03-31 08:40:00,43.6,39.0,30.17,West,270,0.0,1.6,84,0.00,,,0.00,Rainwise IP-100,2013-03-31 12:40:00,
2013-03-31 08:45:00,44.1,39.0,30.17,West,270,1.2,1.9,82,0.00,,,0.00,Rainwise IP-100,2013-03-31 12:45:00,
2013-03-31 08:50:00,44.4,38.0,30.17,West,270,0.0,2.1,79,0.00,,,0.00,Rainwise IP-100,2013-03-31 12:50:00,
2013-03-31 08:55:00,45.2,38.0,30.17,West,270,2.6,2.6,77,0.00,,,0.00,Rainwise IP-100,2013-03-31 12:55:00,
2013-03-31 09:00:00,46.1,38.0,30.17,West,270,0.0,2.8,75,0.00,,,0.00,Rainwise IP-100,2013-03-31 13:00:00,
2013-03-31 09:05:00,47.3,40.0,30.16,West,270,0.0,0.0,75,0.00,,,0.00,Rainwise IP-100,2013-03-31 13:05:00,
2013-03-31 09:10:00,48.7,41.0,30.16,West,270,0.0,0.0,75,0.00,,,0.00,Rainwise IP-100,2013-03-31 13:10:00,
2013-03-31 09:15:00,49.6,41.0,30.16,West,270,0.0,0.0,73,0.00,,,0.00,Rainwise IP-100,2013-03-31 13:15:00,
2013-03-31 09:20:00,50.8,42.0,30.16,West,270,0.0,0.0,71,0.00,,,0.00,Rainwise IP-100,2013-03-31 13:20:00,
2013-03-31 09:25:00,51.3,42.0,30.16,ENE,67,2.6,2.6,71,0.00,,,0.00,Rainwise IP-100,2013-03-31 13:25:00,
2013-03-31 09:30:00,51.2,42.0,30.16,ENE,67,2.6,2.8,71,0.00,,,0.00,Rainwise IP-100,2013-03-31 13:30:00,
2013-03-31 09:35:00,51.1,42.0,30.16,East,90,4.0,4.0,71,0.00,,,0.00,Rainwise IP-100,2013-03-31 13:35:00,
2013-03-31 09:40:00,51.2,42.0,30.16,ENE,67,2.1,4.2,71,0.00,,,0.00,Rainwise IP-100,2013-03-31 13:40:00,
2013-03-31 09:45:00,51.4,42.0,30.16,NNE,22,1.9,3.7,70,0.00,,,0.00,Rainwise IP-100,2013-03-31 13:45:00,
2013-03-31 09:50:00,51.9,42.0,30.16,ESE,112,0.0,2.8,69,0.00,,,0.00,Rainwise IP-100,2013-03-31 13:50:00,
2013-03-31 09:55:00,52.8,41.0,30.16,SSW,202,2.1,3.3,64,0.00,,,0.00,Rainwise IP-100,2013-03-31 13:55:00,
2013-03-31 10:00:00,53.5,39.0,30.16,SSW,202,0.0,3.5,59,0.00,,,0.00,Rainwise IP-100,2013-03-31 14:00:00,
2013-03-31 10:05:00,53.7,37.0,30.16,SSW,202,4.2,4.9,53,0.00,,,0.00,Rainwise IP-100,2013-03-31 14:05:00,
2013-03-31 10:10:00,53.5,35.0,30.16,SSE,157,2.8,5.6,49,0.00,,,0.00,Rainwise IP-100,2013-03-31 14:10:00,
2013-03-31 10:15:00,53.3,35.0,30.17,SE,135,3.3,5.4,49,0.00,,,0.00,Rainwise IP-100,2013-03-31 14:15:00,
2013-03-31 10:20:00,52.9,35.0,30.17,SSE,157,3.5,5.6,51,0.00,,,0.00,Rainwise IP-100,2013-03-31 14:20:00,
2013-03-31 10:25:00,52.4,35.0,30.17,East,90,3.7,6.5,52,0.00,,,0.00,Rainwise IP-100,2013-03-31 14:25:00,
2013-03-31 10:30:00,51.7,35.0,30.17,East,90,2.3,6.5,51,0.00,,,0.00,Rainwise IP-100,2013-03-31 14:30:00,
2013-03-31 10:35:00,50.6,33.0,30.17,South,180,0.0,6.1,50,0.00,,,0.00,Rainwise IP-100,2013-03-31 14:35:00,
2013-03-31 10:41:00,51.2,35.0,30.17,SSW,202,3.5,5.4,52,0.00,,,0.00,Rainwise IP-100,2013-03-31 14:41:00,
2013-03-31 10:46:00,51.5,38.0,30.17,SSE,157,4.4,7.9,58,0.00,,,0.00,Rainwise IP-100,2013-03-31 14:46:00,
2013-03-31 10:51:00,51.3,39.0,30.17,East,90,0.0,5.8,62,0.00,,,0.00,Rainwise IP-100,2013-03-31 14:51:00,
2013-03-31 10:56:00,51.7,39.0,30.17,SSW,202,1.9,5.1,62,0.00,,,0.00,Rainwise IP-100,2013-03-31 14:56:00,
2013-03-31 11:01:00,52.4,39.0,30.16,SSE,157,2.1,5.8,61,0.00,,,0.00,Rainwise IP-100,2013-03-31 15:01:00,
2013-03-31 11:06:00,52.7,39.0,30.17,SSW,202,5.6,8.4,59,0.00,,,0.00,Rainwise IP-100,2013-03-31 15:06:00,
2013-03-31 11:11:00,52.6,38.0,30.17,SSE,157,1.4,6.3,58,0.00,,,0.00,Rainwise IP-100,2013-03-31 15:11:00,
2013-03-31 11:16:00,52.8,38.0,30.17,SE,135,0.0,7.2,57,0.00,,,0.00,Rainwise IP-100,2013-03-31 15:16:00,
2013-03-31 11:21:00,53.0,37.0,30.17,SSE,157,4.4,7.5,56,0.00,,,0.00,Rainwise IP-100,2013-03-31 15:21:00,
2013-03-31 11:26:00,53.1,37.0,30.16,SSE,157,7.7,7.7,54,0.00,,,0.00,Rainwise IP-100,2013-03-31 15:26:00,
2013-03-31 11:31:00,52.9,36.0,30.16,SSE,157,3.0,9.6,53,0.00,,,0.00,Rainwise IP-100,2013-03-31 15:31:00,
2013-03-31 11:36:00,52.5,36.0,30.16,South,180,4.7,7.0,52,0.00,,,0.00,Rainwise IP-100,2013-03-31 15:36:00,
2013-03-31 11:41:00,52.3,36.0,30.16,SSE,157,4.2,7.2,53,0.00,,,0.00,Rainwise IP-100,2013-03-31 15:41:00,
2013-03-31 11:46:00,52.6,36.0,30.16,SSW,202,1.2,7.2,53,0.00,,,0.00,Rainwise IP-100,2013-03-31 15:46:00,
2013-03-31 11:51:00,53.0,36.0,30.16,SSE,157,3.0,5.1,53,0.00,,,0.00,Rainwise IP-100,2013-03-31 15:51:00,
2013-03-31 11:56:00,53.3,37.0,30.16,ESE,112,0.0,6.1,53,0.00,,,0.00,Rainwise IP-100,2013-03-31 15:56:00,
2013-03-31 12:01:00,53.6,37.0,30.16,SSW,202,5.4,5.4,54,0.00,,,0.00,Rainwise IP-100,2013-03-31 16:01:00,
2013-03-31 12:06:00,53.4,37.0,30.16,SSE,157,4.7,5.8,54,0.00,,,0.00,Rainwise IP-100,2013-03-31 16:06:00,
2013-03-31 12:11:00,53.2,37.0,30.15,SSW,202,1.9,7.0,55,0.00,,,0.00,Rainwise IP-100,2013-03-31 16:11:00,
2013-03-31 12:16:00,53.1,37.0,30.15,SSW,202,2.3,8.4,56,0.00,,,0.00,Rainwise IP-100,2013-03-31 16:16:00,
2013-03-31 12:21:00,52.9,38.0,30.16,SSW,202,7.0,8.2,57,0.00,,,0.00,Rainwise IP-100,2013-03-31 16:21:00,
2013-03-31 12:26:00,52.8,38.0,30.15,SSE,157,1.4,7.2,58,0.00,,,0.00,Rainwise IP-100,2013-03-31 16:26:00,
2013-03-31 12:31:00,52.9,38.0,30.15,SSE,157,8.2,8.2,58,0.00,,,0.00,Rainwise IP-100,2013-03-31 16:31:00,
2013-03-31 12:36:00,52.9,39.0,30.15,SSW,202,7.7,8.6,59,0.00,,,0.00,Rainwise IP-100,2013-03-31 16:36:00,
2013-03-31 12:41:00,52.1,38.0,30.14,WNW,292,6.8,12.8,58,0.00,,,0.00,Rainwise IP-100,2013-03-31 16:41:00,
2013-03-31 12:46:00,51.0,37.0,30.15,WNW,292,5.4,10.7,59,0.00,,,0.00,Rainwise IP-100,2013-03-31 16:46:00,
2013-03-31 12:51:00,51.1,37.0,30.14,WNW,292,4.9,11.4,58,0.00,,,0.00,Rainwise IP-100,2013-03-31 16:51:00,
2013-03-31 12:56:00,51.7,36.0,30.15,SSE,157,3.5,11.4,55,0.00,,,0.00,Rainwise IP-100,2013-03-31 16:56:00,
2013-03-31 13:01:00,51.5,36.0,30.14,WSW,247,4.0,15.2,53,0.00,,,0.00,Rainwise IP-100,2013-03-31 17:01:00,
2013-03-31 13:06:00,51.5,35.0,30.14,WNW,292,4.4,11.0,51,0.00,,,0.00,Rainwise IP-100,2013-03-31 17:06:00,
2013-03-31 13:11:00,51.8,33.0,30.14,NW,315,4.9,11.9,49,0.00,,,0.00,Rainwise IP-100,2013-03-31 17:11:00,
2013-03-31 13:16:00,51.9,33.0,30.14,West,270,8.6,17.5,48,0.00,,,0.00,Rainwise IP-100,2013-03-31 17:16:00,
2013-03-31 13:21:00,51.2,33.0,30.13,WNW,292,6.1,16.1,49,0.00,,,0.00,Rainwise IP-100,2013-03-31 17:21:00,
2013-03-31 13:26:00,50.4,33.0,30.14,NNW,337,6.3,17.3,51,0.00,,,0.00,Rainwise IP-100,2013-03-31 17:26:00,
2013-03-31 13:31:00,50.1,33.0,30.14,WSW,247,5.8,15.4,52,0.00,,,0.00,Rainwise IP-100,2013-03-31 17:31:00,
2013-03-31 13:36:00,50.0,33.0,30.13,WSW,247,5.1,16.1,52,0.00,,,0.00,Rainwise IP-100,2013-03-31 17:36:00,
2013-03-31 13:41:00,50.1,33.0,30.13,WSW,247,6.5,12.6,53,0.00,,,0.00,Rainwise IP-100,2013-03-31 17:41:00,
2013-03-31 13:46:00,50.3,35.0,30.13,West,270,7.9,12.6,53,0.00,,,0.00,Rainwise IP-100,2013-03-31 17:46:00,
2013-03-31 13:51:00,50.5,35.0,30.13,WNW,292,5.1,11.7,54,0.00,,,0.00,Rainwise IP-100,2013-03-31 17:51:00,
2013-03-31 13:56:00,50.8,36.0,30.13,WSW,247,6.8,11.2,54,0.00,,,0.00,Rainwise IP-100,2013-03-31 17:56:00,
2013-03-31 14:01:00,50.8,36.0,30.12,SW,225,9.6,10.5,54,0.00,,,0.00,Rainwise IP-100,2013-03-31 18:01:00,
2013-03-31 14:06:00,50.5,35.0,30.12,SW,225,2.1,13.1,53,0.00,,,0.00,Rainwise IP-100,2013-03-31 18:06:00,
2013-03-31 14:11:00,50.4,35.0,30.11,SSW,202,4.7,12.8,54,0.00,,,0.00,Rainwise IP-100,2013-03-31 18:11:00,
2013-03-31 14:16:00,50.7,35.0,30.11,WNW,292,5.4,11.4,55,0.00,,,0.00,Rainwise IP-100,2013-03-31 18:16:00,
2013-03-31 14:21:00,51.0,36.0,30.11,WSW,247,9.6,9.6,55,0.00,,,0.00,Rainwise IP-100,2013-03-31 18:21:00,
2013-03-31 14:26:00,50.9,36.0,30.11,WNW,292,5.1,11.2,54,0.00,,,0.00,Rainwise IP-100,2013-03-31 18:26:00,
2013-03-31 14:31:00,50.6,35.0,30.11,WNW,292,8.2,9.6,53,0.00,,,0.00,Rainwise IP-100,2013-03-31 18:31:00,
2013-03-31 14:36:00,51.1,35.0,30.11,WSW,247,5.8,8.9,53,0.00,,,0.00,Rainwise IP-100,2013-03-31 18:36:00,
2013-03-31 14:41:00,51.5,36.0,30.11,SSW,202,3.7,8.2,53,0.00,,,0.00,Rainwise IP-100,2013-03-31 18:41:00,
2013-03-31 14:46:00,51.4,35.0,30.11,WNW,292,5.6,10.5,52,0.00,,,0.00,Rainwise IP-100,2013-03-31 18:46:00,
2013-03-31 14:51:00,51.4,35.0,30.11,SSW,202,5.1,11.9,53,0.00,,,0.00,Rainwise IP-100,2013-03-31 18:51:00,
2013-03-31 14:56:00,51.3,36.0,30.11,West,270,4.9,8.2,55,0.00,,,0.00,Rainwise IP-100,2013-03-31 18:56:00,
2013-03-31 15:01:00,50.7,36.0,30.11,West,270,3.3,13.1,58,0.00,,,0.00,Rainwise IP-100,2013-03-31 19:01:00,
2013-03-31 15:06:00,50.4,37.0,30.10,WSW,247,0.0,7.5,60,0.00,,,0.00,Rainwise IP-100,2013-03-31 19:06:00,
2013-03-31 15:11:00,50.6,38.0,30.10,WSW,247,3.3,7.0,62,0.00,,,0.00,Rainwise IP-100,2013-03-31 19:11:00,
2013-03-31 15:16:00,50.9,39.0,30.10,SSW,202,3.5,6.1,62,0.00,,,0.00,Rainwise IP-100,2013-03-31 19:16:00,
2013-03-31 15:21:00,51.2,38.0,30.10,West,270,3.3,7.0,61,0.00,,,0.00,Rainwise IP-100,2013-03-31 19:21:00,
2013-03-31 15:26:00,51.3,38.0,30.10,SW,225,7.7,11.9,60,0.00,,,0.00,Rainwise IP-100,2013-03-31 19:26:00,
2013-03-31 15:31:00,51.5,38.0,30.10,SSW,202,2.1,8.6,59,0.00,,,0.00,Rainwise IP-100,2013-03-31 19:31:00,
2013-03-31 15:36:00,52.1,38.0,30.09,SSW,202,3.7,7.5,58,0.00,,,0.00,Rainwise IP-100,2013-03-31 19:36:00,
2013-03-31 15:41:00,52.2,37.0,30.09,SSE,157,6.8,8.2,57,0.00,,,0.00,Rainwise IP-100,2013-03-31 19:41:00,
2013-03-31 15:46:00,52.3,37.0,30.09,SSW,202,3.5,7.9,56,0.00,,,0.00,Rainwise IP-100,2013-03-31 19:46:00,
2013-03-31 15:51:00,52.7,37.0,30.08,WSW,247,3.0,6.8,54,0.00,,,0.00,Rainwise IP-100,2013-03-31 19:51:00,
2013-03-31 15:56:00,52.4,36.0,30.08,SSW,202,9.8,9.8,54,0.00,,,0.00,Rainwise IP-100,2013-03-31 19:56:00,
2013-03-31 16:01:00,51.7,36.0,30.08,West,270,3.3,9.8,55,0.00,,,0.00,Rainwise IP-100,2013-03-31 20:01:00,
2013-03-31 16:06:00,51.2,36.0,30.08,WNW,292,4.0,6.3,55,0.00,,,0.00,Rainwise IP-100,2013-03-31 20:06:00,
2013-03-31 16:11:00,51.2,36.0,30.08,West,270,1.9,6.5,54,0.00,,,0.00,Rainwise IP-100,2013-03-31 20:11:00,
2013-03-31 16:16:00,51.5,36.0,30.08,SSW,202,7.9,7.9,53,0.00,,,0.00,Rainwise IP-100,2013-03-31 20:16:00,
2013-03-31 16:21:00,51.8,36.0,30.08,WSW,247,2.6,9.8,53,0.00,,,0.00,Rainwise IP-100,2013-03-31 20:21:00,
2013-03-31 16:26:00,51.7,35.0,30.08,SSW,202,2.3,7.0,52,0.00,,,0.00,Rainwise IP-100,2013-03-31 20:26:00,
2013-03-31 16:31:00,51.7,36.0,30.08,WSW,247,6.8,6.8,53,0.00,,,0.00,Rainwise IP-100,2013-03-31 20:31:00,
2013-03-31 16:36:00,51.6,36.0,30.08,WSW,247,2.1,7.9,53,0.00,,,0.00,Rainwise IP-100,2013-03-31 20:36:00,
2013-03-31 16:41:00,51.4,36.0,30.07,SSW,202,4.2,7.2,54,0.00,,,0.00,Rainwise IP-100,2013-03-31 20:41:00,
2013-03-31 16:46:00,51.4,36.0,30.07,South,180,5.6,9.3,54,0.00,,,0.00,Rainwise IP-100,2013-03-31 20:46:00,
2013-03-31 16:51:00,51.6,36.0,30.07,SSW,202,4.2,8.2,54,0.00,,,0.00,Rainwise IP-100,2013-03-31 20:51:00,
2013-03-31 16:56:00,51.7,36.0,30.07,SSW,202,2.3,6.5,54,0.00,,,0.00,Rainwise IP-100,2013-03-31 20:56:00,
2013-03-31 17:01:00,51.7,36.0,30.07,SSE,157,2.8,3.5,55,0.00,,,0.00,Rainwise IP-100,2013-03-31 21:01:00,
2013-03-31 17:06:00,51.7,37.0,30.06,SSE,157,7.0,7.5,56,0.00,,,0.00,Rainwise IP-100,2013-03-31 21:06:00,
2013-03-31 17:11:00,51.4,37.0,30.07,SSE,157,1.6,7.7,57,0.00,,,0.00,Rainwise IP-100,2013-03-31 21:11:00,
2013-03-31 17:16:00,50.8,38.0,30.07,SSE,157,5.1,7.2,60,0.00,,,0.00,Rainwise IP-100,2013-03-31 21:16:00,
2013-03-31 17:21:00,50.1,38.0,30.07,SSE,157,3.3,5.8,63,0.00,,,0.00,Rainwise IP-100,2013-03-31 21:21:00,
2013-03-31 17:26:00,49.4,38.0,30.06,ESE,112,2.3,6.1,67,0.00,,,0.00,Rainwise IP-100,2013-03-31 21:26:00,
2013-03-31 17:31:00,48.9,39.0,30.07,ESE,112,5.4,8.4,69,0.00,,,0.00,Rainwise IP-100,2013-03-31 21:31:00,
2013-03-31 17:36:00,48.0,39.0,30.07,SSE,157,3.3,7.2,71,0.00,,,0.00,Rainwise IP-100,2013-03-31 21:36:00,
2013-03-31 17:41:00,47.2,39.0,30.06,SE,135,5.1,7.7,74,0.00,,,0.00,Rainwise IP-100,2013-03-31 21:41:00,
2013-03-31 17:46:00,46.7,39.0,30.06,SSW,202,1.4,7.7,76,0.00,,,0.00,Rainwise IP-100,2013-03-31 21:46:00,
2013-03-31 17:51:00,46.4,39.0,30.06,South,180,3.7,4.0,78,0.00,,,0.00,Rainwise IP-100,2013-03-31 21:51:00,
2013-03-31 17:56:00,46.3,39.0,30.06,South,180,4.9,8.9,79,0.00,,,0.00,Rainwise IP-100,2013-03-31 21:56:00,
2013-03-31 18:01:00,46.2,40.0,30.06,ESE,112,0.0,5.8,80,0.00,,,0.00,Rainwise IP-100,2013-03-31 22:01:00,
2013-03-31 18:06:00,46.1,40.0,30.06,SSE,157,1.2,3.0,80,0.00,,,0.00,Rainwise IP-100,2013-03-31 22:06:00,
2013-03-31 18:11:00,46.0,40.0,30.06,ESE,112,3.5,7.2,81,0.00,,,0.00,Rainwise IP-100,2013-03-31 22:11:00,
2013-03-31 18:16:00,45.8,40.0,30.05,SSE,157,1.2,7.9,81,0.00,,,0.00,Rainwise IP-100,2013-03-31 22:16:00,
2013-03-31 18:21:00,45.7,40.0,30.05,SSE,157,3.0,9.1,81,0.00,,,0.00,Rainwise IP-100,2013-03-31 22:21:00,
2013-03-31 18:26:00,45.6,40.0,30.05,ESE,112,3.0,5.4,81,0.00,,,0.00,Rainwise IP-100,2013-03-31 22:26:00,
2013-03-31 18:31:00,45.4,40.0,30.05,ESE,112,2.3,7.2,82,0.00,,,0.00,Rainwise IP-100,2013-03-31 22:31:00,
2013-03-31 18:36:00,45.1,40.0,30.05,SSE,157,5.4,6.8,82,0.00,,,0.00,Rainwise IP-100,2013-03-31 22:36:00,
2013-03-31 18:41:00,45.0,40.0,30.04,SSE,157,2.1,6.3,83,0.00,,,0.00,Rainwise IP-100,2013-03-31 22:41:00,
2013-03-31 18:46:00,45.0,40.0,30.04,SSE,157,3.7,4.9,83,0.00,,,0.00,Rainwise IP-100,2013-03-31 22:46:00,
2013-03-31 18:51:00,44.9,40.0,30.04,SSE,157,0.0,5.1,83,0.00,,,0.00,Rainwise IP-100,2013-03-31 22:51:00,
2013-03-31 18:56:00,44.8,40.0,30.04,ESE,112,2.1,5.8,83,0.00,,,0.00,Rainwise IP-100,2013-03-31 22:56:00,
2013-03-31 19:01:00,44.8,40.0,30.03,SE,135,6.8,6.8,83,0.00,,,0.00,Rainwise IP-100,2013-03-31 23:01:00,
2013-03-31 19:06:00,44.8,40.0,30.03,SE,135,0.0,6.8,84,0.00,,,0.00,Rainwise IP-100,2013-03-31 23:06:00,
2013-03-31 19:11:00,44.8,40.0,30.03,South,180,4.2,5.6,84,0.00,,,0.00,Rainwise IP-100,2013-03-31 23:11:00,
2013-03-31 19:16:00,44.9,40.0,30.03,South,180,3.0,5.1,84,0.00,,,0.00,Rainwise IP-100,2013-03-31 23:16:00,
2013-03-31 19:21:00,44.9,40.0,30.03,ESE,112,2.8,4.9,84,0.00,,,0.00,Rainwise IP-100,2013-03-31 23:21:00,
2013-03-31 19:26:00,44.9,40.0,30.03,East,90,0.0,6.5,84,0.00,,,0.00,Rainwise IP-100,2013-03-31 23:26:00,
2013-03-31 19:31:00,44.9,40.0,30.03,SE,135,6.8,6.8,83,0.00,,,0.00,Rainwise IP-100,2013-03-31 23:31:00,
2013-03-31 19:36:00,44.9,40.0,30.03,SSE,157,3.0,6.8,82,0.00,,,0.00,Rainwise IP-100,2013-03-31 23:36:00,
2013-03-31 19:41:00,45.1,39.0,30.03,SSE,157,1.2,8.4,81,0.00,,,0.00,Rainwise IP-100,2013-03-31 23:41:00,
2013-03-31 19:46:00,45.3,39.0,30.02,SE,135,2.8,8.4,80,0.00,,,0.00,Rainwise IP-100,2013-03-31 23:46:00,
2013-03-31 19:51:00,45.4,39.0,30.02,SE,135,5.1,9.1,79,0.00,,,0.00,Rainwise IP-100,2013-03-31 23:51:00,
2013-03-31 19:56:00,45.5,39.0,30.01,SSE,157,4.0,10.3,78,0.00,,,0.00,Rainwise IP-100,2013-03-31 23:56:00,
2013-03-31 20:01:00,45.5,39.0,30.01,SE,135,1.2,10.3,78,0.00,,,0.00,Rainwise IP-100,2013-04-01 00:01:00,
2013-03-31 20:06:00,45.5,39.0,30.00,SSE,157,3.7,9.3,78,0.00,,,0.00,Rainwise IP-100,2013-04-01 00:06:00,
2013-03-31 20:11:00,45.5,39.0,30.00,SE,135,4.0,7.7,77,0.00,,,0.00,Rainwise IP-100,2013-04-01 00:11:00,
2013-03-31 20:16:00,45.5,39.0,29.99,ESE,112,5.4,8.4,77,0.00,,,0.00,Rainwise IP-100,2013-04-01 00:16:00,
2013-03-31 20:21:00,45.4,38.0,30.00,SE,135,5.6,8.4,77,0.00,,,0.00,Rainwise IP-100,2013-04-01 00:21:00,
2013-03-31 20:26:00,45.4,38.0,29.99,SSE,157,5.8,10.0,76,0.00,,,0.00,Rainwise IP-100,2013-04-01 00:26:00,
2013-03-31 20:31:00,45.5,39.0,29.99,SSE,157,6.1,13.1,76,0.00,,,0.00,Rainwise IP-100,2013-04-01 00:31:00,
2013-03-31 20:36:00,45.7,38.0,29.99,SE,135,3.7,11.4,75,0.00,,,0.00,Rainwise IP-100,2013-04-01 00:36:00,
2013-03-31 20:41:00,45.8,38.0,29.98,ESE,112,5.1,10.7,75,0.00,,,0.00,Rainwise IP-100,2013-04-01 00:41:00,
2013-03-31 20:46:00,45.8,38.0,29.98,SSE,157,4.7,11.0,75,0.00,,,0.00,Rainwise IP-100,2013-04-01 00:46:00,
2013-03-31 20:51:00,46.0,38.0,29.98,SE,135,2.8,13.8,75,0.00,,,0.00,Rainwise IP-100,2013-04-01 00:51:00,
2013-03-31 20:56:00,46.0,38.0,29.98,East,90,2.8,14.5,75,0.00,,,0.00,Rainwise IP-100,2013-04-01 00:56:00,
2013-03-31 21:01:00,46.0,38.0,29.98,SSE,157,5.1,10.3,75,0.00,,,0.00,Rainwise IP-100,2013-04-01 01:01:00,
2013-03-31 21:06:00,45.8,38.0,29.97,SE,135,9.3,13.3,75,0.00,,,0.00,Rainwise IP-100,2013-04-01 01:06:00,
2013-03-31 21:11:00,45.8,39.0,29.97,SSE,157,5.8,14.5,76,0.00,,,0.00,Rainwise IP-100,2013-04-01 01:11:00,
2013-03-31 21:16:00,45.9,39.0,29.96,SSW,202,2.8,12.4,76,0.00,,,0.00,Rainwise IP-100,2013-04-01 01:16:00,
2013-03-31 21:21:00,46.1,39.0,29.97,SE,135,13.1,13.1,76,0.00,,,0.00,Rainwise IP-100,2013-04-01 01:21:00,
2013-03-31 21:26:00,46.2,39.0,29.96,SSE,157,4.4,15.9,76,0.00,,,0.00,Rainwise IP-100,2013-04-01 01:26:00,
2013-03-31 21:31:00,46.2,39.0,29.96,SSE,157,3.5,13.5,76,0.00,,,0.00,Rainwise IP-100,2013-04-01 01:31:00,
2013-03-31 21:36:00,46.2,39.0,29.96,ESE,112,7.2,11.4,76,0.00,,,0.00,Rainwise IP-100,2013-04-01 01:36:00,
2013-03-31 21:41:00,46.2,39.0,29.95,SE,135,4.7,12.1,76,0.00,,,0.00,Rainwise IP-100,2013-04-01 01:41:00,
2013-03-31 21:46:00,46.3,39.0,29.95,SE,135,3.5,8.9,76,0.00,,,0.00,Rainwise IP-100,2013-04-01 01:46:00,
2013-03-31 21:51:00,46.3,39.0,29.94,ESE,112,4.9,14.9,76,0.00,,,0.00,Rainwise IP-100,2013-04-01 01:51:00,
2013-03-31 21:56:00,46.3,39.0,29.94,ESE,112,3.0,19.6,76,0.00,,,0.00,Rainwise IP-100,2013-04-01 01:56:00,
2013-03-31 22:01:00,46.0,39.0,29.93,ESE,112,5.6,15.4,78,0.00,,,0.00,Rainwise IP-100,2013-04-01 02:01:00,
2013-03-31 22:06:00,45.6,40.0,29.92,ESE,112,5.8,11.7,81,0.00,,,0.00,Rainwise IP-100,2013-04-01 02:06:00,
2013-03-31 22:11:00,45.3,40.0,29.92,SE,135,6.1,13.8,82,0.00,,,0.00,Rainwise IP-100,2013-04-01 02:11:00,
2013-03-31 22:16:00,45.2,40.0,29.91,ESE,112,12.8,17.0,83,0.06,,,0.01,Rainwise IP-100,2013-04-01 02:16:00,
2013-03-31 22:21:00,45.1,40.0,29.91,East,90,6.1,12.8,84,0.06,,,0.01,Rainwise IP-100,2013-04-01 02:21:00,
2013-03-31 22:26:00,45.0,40.0,29.90,SE,135,7.0,17.7,84,0.00,,,0.01,Rainwise IP-100,2013-04-01 02:26:00,
2013-03-31 22:31:00,45.1,41.0,29.89,South,180,3.3,22.9,85,0.00,,,0.01,Rainwise IP-100,2013-04-01 02:31:00,
2013-03-31 22:36:00,45.1,41.0,29.89,SE,135,5.8,18.7,85,0.06,,,0.02,Rainwise IP-100,2013-04-01 02:36:00,
2013-03-31 22:41:00,44.9,41.0,29.88,East,90,4.2,16.8,87,0.06,,,0.02,Rainwise IP-100,2013-04-01 02:41:00,
2013-03-31 22:46:00,44.8,41.0,29.88,SSE,157,4.9,19.1,87,0.00,,,0.02,Rainwise IP-100,2013-04-01 02:46:00,
2013-03-31 22:51:00,44.7,41.0,29.88,SE,135,15.2,16.1,88,0.00,,,0.03,Rainwise IP-100,2013-04-01 02:51:00,
2013-03-31 22:56:00,44.7,42.0,29.86,SE,135,1.9,15.9,89,0.06,,,0.03,Rainwise IP-100,2013-04-01 02:56:00,
2013-03-31 23:01:00,44.6,42.0,29.86,South,180,8.4,14.2,90,0.06,,,0.03,Rainwise IP-100,2013-04-01 03:01:00,
2013-03-31 23:07:00,44.6,42.0,29.86,SSE,157,12.4,12.4,90,0.06,,,0.04,Rainwise IP-100,2013-04-01 03:07:00,
2013-03-31 23:12:00,44.6,42.0,29.85,SE,135,10.0,13.1,91,0.06,,,0.04,Rainwise IP-100,2013-04-01 03:12:00,
2013-03-31 23:17:00,44.6,43.0,29.84,ESE,112,4.7,16.1,92,0.00,,,0.04,Rainwise IP-100,2013-04-01 03:17:00,
2013-03-31 23:22:00,44.6,43.0,29.84,ESE,112,10.0,11.4,92,0.00,,,0.04,Rainwise IP-100,2013-04-01 03:22:00,
2013-03-31 23:27:00,44.6,43.0,29.83,SSE,157,2.1,15.4,93,0.06,,,0.05,Rainwise IP-100,2013-04-01 03:27:00,
2013-03-31 23:32:00,44.6,43.0,29.82,ESE,112,5.8,13.3,93,0.12,,,0.06,Rainwise IP-100,2013-04-01 03:32:00,
2013-03-31 23:37:00,44.6,43.0,29.82,East,90,8.2,19.6,93,0.06,,,0.06,Rainwise IP-100,2013-04-01 03:37:00,
2013-03-31 23:42:00,44.6,43.0,29.81,ESE,112,10.7,14.7,94,0.00,,,0.06,Rainwise IP-100,2013-04-01 03:42:00,
2013-03-31 23:47:00,44.6,43.0,29.81,ESE,112,3.0,17.7,94,0.00,,,0.06,Rainwise IP-100,2013-04-01 03:47:00,
2013-03-31 23:52:00,44.6,44.0,29.80,ESE,112,9.1,14.2,95,0.06,,,0.07,Rainwise IP-100,2013-04-01 03:52:00,
2013-03-31 23:57:00,44.6,44.0,29.80,East,90,12.8,18.2,95,0.12,,,0.08,Rainwise IP-100,2013-04-01 03:57:00,